Location: Acts Church of Fort Worth
(32.6786°N, 97.2668°W)
Time: 22:04:35
(UTC+00:00)

Timation 1 Rocket - Pass Details

Date: 18 January 2026
Orbit: 895 x 908 km, 70.0° (Epoch: 10 February)

Event Time Altitude Azimuth Distance (km) Brightness Sun altitude
Rises 02:02:13 0° 207° (SSW) 3,494 7.9 -27.9°
Reaches altitude 10° 02:04:42 10° 210° (SSW) 2,558 7.1 -28.4°
Maximum altitude 02:10:35 68° 293° (WNW) 962 4.5 -29.7°
Enters shadow 02:11:25 60° 338° (NNW) 1,021 4.5 -29.9°
